FW0502 Weather Reports


time (UTC)temp
F
wind
direction
speed
knots
gust
knots
rain 1hr
in
rain 24hr
in
rain mn
in
humidity
%
barometer
mb
20260906231556 59 0.9 2.6 0.00 0.02 0.02 77 1016.4
20260906230058 59 0.0 2.6 0.00 0.02 0.02 77 1016.2
20260906224556 59 0.0 3.5 0.00 0.05 0.02 78 1016.1
20260906223055 59 0.9 3.5 0.00 0.05 0.02 78 1016.2
20260906221600 59 1.7 4.3 0.00 0.05 0.02 77 1016.3
20260906220055 59 0.9 5.2 0.00 0.05 0.02 78 1016.3
20260906214551 59 1.7 4.3 0.00 0.05 0.02 79 1016.6
20260906213100 59 0.9 5.2 0.00 0.05 0.02 79 1016.6
20260906211551 59 1.7 5.2 0.00 0.05 0.02 81 1016.7
20260906210053 60 1.7 4.3 0.00 0.05 0.02 79 1016.8
20260906204601 59 1.7 3.5 0.00 0.05 0.02 81 1016.8
20260906203046 60 0.9 2.6 0.00 0.05 0.02 81 1016.5
20260906201601 59 0.0 2.6 0.00 0.05 0.02 85 1016.8
20260906200039 58 0.0 0.0 0.00 0.05 0.02 91 1016.9
20260906194537 57 0.0 1.7 0.00 0.05 0.02 97 1016.9
20260906193035 57 0.0 1.7 0.00 0.05 0.02 97 1016.9
20260906191532 56 0.0 0.0 0.00 0.05 0.02 97 1017.1
20260906190032 56 0.0 1.7 0.01 0.05 0.02 98 1017.2
20260906184530 55 0.0 1.7 0.01 0.07 0.02 98 1017.2
20260906183029 55 0.0 2.6 0.01 0.07 0.02 98 1017.2
20260906181527 55 1.7 4.3 0.01 0.07 0.02 98 1017.7
20260906180051 53 1.7 4.3 0.00 0.06 0.02 98 1017.9
20260906174522 53 2.6 5.2 0.00 0.07 0.02 98 1018.2
20260906173019 52 1.7 5.2 0.00 0.07 0.02 98 1018.3
20260906171516 52 1.7 4.3 0.00 0.07 0.02 98 1018.6
20260906170015 52 1.7 5.2 0.01 0.07 0.02 98 1018.5
20260906164513 51 1.7 5.2 0.02 0.14 0.02 98 1018.9
20260906163011 51 1.7 3.5 0.02 0.14 0.02 98 1019.0
20260906161516 51 2.6 3.5 0.02 0.14 0.02 98 1019.0
20260906160009 51 2.6 4.3 0.01 0.13 0.01 98 1019.1
20260906154513 51 0.9 3.5 0.00 0.13 0.00 98 1019.2
20260906153009 51 2.6 4.3 0.00 0.13 0.00 98 1019.2
20260906151507 50 1.7 2.6 0.00 0.13 0.00 98 1019.1
20260906150011 50 0.0 0.9 0.00 0.13 0.00 98 1019.4
20260906144510 50 0.0 0.9 0.00 0.13 0.00 98 1019.6
20260906143005 50 0.0 1.7 0.00 0.13 0.00 98 1019.3
20260906141503 50 1.7 3.5 0.00 0.13 0.00 98 1019.1
20260906140006 50 1.7 3.5 0.00 0.13 0.00 98 1019.1
20260906134502 50 0.0 1.7 0.00 0.13 0.00 98 1019.2
20260906133003 50 1.7 3.5 0.00 0.13 0.00 98 1018.9
20260906131559 50 1.7 3.5 0.00 0.13 0.00 98 1019.2
20260906130100 50 0.9 2.6 0.00 0.13 0.00 98 1019.6
20260906124557 50 0.0 2.6 0.00 0.13 0.00 98 1019.6
20260906123154 50 0.9 2.6 0.00 0.13 0.00 98 1019.7
20260906121556 50 0.9 2.6 0.00 0.13 0.00 98 1019.9
20260906120110 50 0.0 1.7 0.00 0.13 0.00 98 1020.0
20260906114550 50 0.0 1.7 0.00 0.13 0.00 98 1020.3
20260906113056 50 0.9 1.7 0.00 0.13 0.00 98 1020.3
20260906111605 50 0.0 0.0 0.00 0.13 0.00 98 1020.5
20260906110048 50 0.0 0.9 0.00 0.13 0.00 98 1020.6
20260906104546 50 0.0 0.0 0.00 0.13 0.00 98 1021.0
20260906103046 50 0.0 0.9 0.00 0.13 0.00 98 1020.9
20260906101546 50 0.0 2.6 0.00 0.13 0.00 98 1021.0
20260906100044 50 1.7 4.3 0.00 0.13 0.00 98 1020.7
20260906094543 50 2.6 6.1 0.00 0.13 0.00 98 1020.3
20260906093041 50 3.5 6.1 0.00 0.13 0.00 98 1020.7
20260906091537 50 1.7 3.5 0.00 0.13 0.00 98 1021.3
20260906090036 49 1.7 6.1 0.00 0.13 0.00 97 1021.3
20260906084544 49 2.6 4.3 0.00 0.13 0.00 97 1021.3
20260906083035 49 1.7 3.5 0.00 0.13 0.00 97 1021.7
20260906081530 49 1.7 4.3 0.00 0.13 0.00 97 1021.8
20260906080031 48 1.7 3.5 0.00 0.13 0.00 97 1022.2
20260906074525 48 1.7 4.3 0.00 0.13 0.00 97 1022.1
20260906073028 48 2.6 4.3 0.00 0.13 0.00 97 1022.2
20260906071522 48 3.5 5.2 0.00 0.13 0.00 97 1022.2
20260906070022 48 3.5 5.2 0.00 0.13 0.00 97 1022.5
20260906064520 48 2.6 4.3 0.00 0.13 0.00 97 1022.4
20260906063018 48 3.5 6.1 0.00 0.13 0.00 97 1022.6
20260906061516 49 3.5 5.2 0.00 0.13 0.00 97 1022.6
20260906060014 49 1.7 6.1 0.00 0.13 0.00 97 1022.5
20260906054515 48 2.6 4.3 0.00 0.13 0.13 97 1022.6
20260906053013 48 2.6 5.2 0.00 0.13 0.13 97 1022.6
20260906051511 48 2.6 6.1 0.00 0.13 0.13 97 1022.3
20260906050011 48 3.5 5.2 0.00 0.13 0.13 97 1022.1
20260906044514 48 3.5 4.3 0.00 0.13 0.13 97 1022.0
20260906043010 48 0.9 2.6 0.00 0.13 0.13 97 1022.2
20260906041510 48 0.9 3.5 0.00 0.13 0.13 97 1022.4
20260906040011 49 2.6 4.3 0.00 0.13 0.13 97 1022.1
20260906034512 49 0.9 2.6 0.00 0.13 0.13 96 1022.2
20260906033019 49 1.7 4.3 0.00 0.13 0.13 96 1022.1
20260906031504 50 2.6 5.2 0.00 0.13 0.13 96 1021.8
20260906030002 50 3.5 5.2 0.00 0.13 0.13 96 1021.6
20260906024625 50 3.5 6.1 0.00 0.13 0.13 96 1021.4
20260906023102 50 3.5 6.1 0.00 0.13 0.13 96 1021.1
20260906021559 50 2.6 5.2 0.00 0.13 0.13 96 1021.0
20260906020058 50 3.5 6.1 0.00 0.13 0.13 96 1021.1
20260906014607 50 3.5 6.1 0.00 0.13 0.13 96 1021.0
20260906013055 50 4.3 6.1 0.00 0.13 0.13 96 1020.7
20260906011554 51 2.6 6.1 0.00 0.13 0.13 96 1020.8
20260906010059 51 3.5 6.1 0.00 0.13 0.13 96 1020.8
20260906004553 51 3.5 7.0 0.00 0.13 0.13 96 1020.8
20260906003109 51 4.3 7.0 0.00 0.13 0.13 96 1020.9
20260906001551 52 3.5 6.1 0.00 0.13 0.13 97 1020.8
20260905234551 52 2.6 5.2 0.00 0.13 0.13 97 1020.5
20260905233053 52 3.5 4.3 0.01 0.13 0.13 97 1020.6